Погода в Бучалках

Россия / Тульская область     53°45′21″N   38°46′26″E
темп.,
°C
ветер,
м/с
пор.,
м/с
влажн.,
%
обл.,
%
осадки,
мм/ч
давл.,
гПа
погр.,
м
24 мая, вт
вт2400:00+6з487422 0.0 1006123
03:00+4з4969100 0.0 1006161
06:00+5зсз3873100 0.0 1007221
09:00+10зсз4556100 0.0 1006495
12:00+11зсз6947100 0.0 10061407
15:00+12сз8104096 0.0 10072357
18:00+10с686376 0.0 10091251
21:00+5с348375 0.0 101192
25 мая, ср
ср2500:00+4ссз357898 0.0 1012159
03:00+2ссз36865 0.0 1014119
06:00+3ссз35805 0.0 1015211
09:00+7ссз346010 0.0 10151165
12:00+10сз445190 0.0 10161726
15:00+11сз354888 0.1 10161897
18:00+11сз3454100 0.0 10151515
21:00+8з366995 0.0 1016149
26 мая, чт
чт2600:00+8зюз377154 0.0 1015206
03:00+5зюз368998 0.0 1015117
06:00+7ююз258852 0.0 1013140
09:00+14зюз46715 0.0 1012597
12:00+18зюз6857100 0.6 10101524
15:00+16юз61066100 1.3 1009909
18:00+11ю61293100 2.4 1007911
21:00+10ю61197100 7.3 1003739
27 мая, пт
пт2700:00+10з61196100 0.5 1002605
03:00+9зсз7159264 0.6 1003827
06:00+9зюз61393100 0.1 1003457
09:00+12з8118638 0.7 1003979
12:00+11з81180100 0.4 10061166
15:00+14з7116884 0.6 10061641
18:00+15зюз7116646 0.2 10061133
21:00+11ююз41079100 0.2 1007190
28 мая, сб
сб2800:00+12ююз61477100 0.0 1005453
03:00+12ююз91887100 0.4 1002810
06:00+12з71290100 1.0 1002718
09:00+11зюз7109099 5.4 1003900
12:00+15з7105810 0.2 10051862
15:00+16зюз7951100 0.2 10062460
18:00+14зюз696850 0.3 10081174
21:00+10юз41085100 0.8 1008334